Location: Stanford
(52.2833°N, 2.4333°W)
Time: 20:01:51
(UTC+00:00)

NOSS 3-1 (A) - Pass Details

Date: 22 January 2021
Orbit: 735 x 1477 km, 63.4° (Epoch: 26 February)

Event Time Altitude Azimuth Distance (km) Brightness Sun altitude
Rises 18:23:37 0° 311° (NW) 3,768 7.1 -15.6°
Reaches altitude 10° 18:26:05 10° 314° (NW) 2,914 6.4 -16.0°
Maximum altitude 18:33:05 63° 36° (NE) 1,351 4.0 -17.0°
Enters shadow 18:39:17 19° 113° (ESE) 2,743 5.3 -18.0°
